Hourly Data Report for April 11, 2021

OTTAWA INTL A
ONTARIO
Current Station Operator: NAVCAN

45°19'00.000" N
75°40'00.000" W
114.90 m
6106001
71628
YOW

Download Data

Hourly Data (April 2021)
Hourly Data Report for April 11, 2021
TIME
LST
Temp Definition
°C
Dew Point Definition
°C
Rel Hum Definition
%
Precip. Amount Definition
mm

Wind Dir Definition
10's deg

Wind Spd Definition
km/h
Visibility Definition
km
Stn Press Definition
kPa
Hmdx Definition


Wind Chill Definition


Weather Definition


00:00 13.2 7.6 69   7 11 24.1 99.13     LegendNANA
01:00 13.3 8.3 72   7 17 24.1 99.10     Clear
02:00 12.1 8.4 78   6 18 24.1 99.07     LegendNANA
03:00 10.5 7.2 80   6 20 24.1 99.06     LegendNANA
04:00 8.9 3.8 70   7 19 24.1 99.10     Mainly Clear
05:00 8.1 2.2 66   8 20 24.1 99.16     LegendNANA
06:00 7.5 1.8 67   8 22 24.1 99.21     LegendNANA
07:00 8.7 1.8 62   7 25 24.1 99.18     Mainly Clear
08:00 10.5 2.8 59   8 25 24.1 99.18     LegendNANA
09:00 12.8 4.2 56   9 23 24.1 99.13     LegendNANA
10:00 14.4 5.1 53   8 25 24.1 99.09     Mostly Cloudy
11:00 15.7 5.4 50   8 33 24.1 99.04     LegendNANA
12:00 17.1 6.2 48   9 34 24.1 99.00     LegendNANA
13:00 18.4 6.8 46   7 30 24.1 98.94     Mostly Cloudy
14:00 19.7 6.7 42   8 26 24.1 98.88     LegendNANA
15:00 18.6 5.2 41   6 28 24.1 98.88     LegendNANA
16:00 17.1 0.9 33   6 41 24.1 98.87     Mostly Cloudy
17:00 16.4 -2.7 27   8 34 24.1 98.94     LegendNANA
18:00 15.3 -2.1 30   6 34 24.1 98.98     LegendNANA
19:00 14.6 -2.0 32   7 26 24.1 99.05     Cloudy
20:00 13.8 -2.0 33   6 29 24.1 99.12     LegendNANA
21:00 12.7 -2.0 36   6 23 24.1 99.17     LegendNANA
22:00 12.3 -2.0 37   6 28 24.1 99.18     Mostly Cloudy
23:00 12.0 -1.0 40   7 26 24.1 99.23     LegendNANA

Notes on Data Quality.

Legend

  • E = Estimated
  • M = Missing
  • NA = Not Available*
  • [empty] = Indicates an unobserved value
Date modified: